Location: Bavegemberg
(50.9500°N, 3.8833°E)
Time: 19:11:48
(UTC+00:00)

Meteor 1-12 Rocket - Pass Details

Date: 23 May 2024
Orbit: 855 x 925 km, 81.2° (Epoch: 16 June)

Event Time Altitude Azimuth Distance (km) Brightness Sun altitude
Rises 00:00:14 0° 347° (NNW) 3,510 8.8 -18.3°
Reaches altitude 10° 00:02:41 10° 347° (NNW) 2,576 7.8 -18.3°
Maximum altitude 00:08:35 88° 259° (W) 914 4.3 -18.2°
Enters shadow 00:11:49 29° 170° (S) 1,613 5.1 -18.1°
